Location: McCall
(45.0000°N, 116.0000°W)
Time: 08:15:51
(UTC-07:00)

Saudisat 1A - Visible Passes

Search period start: 24 January 2017 00:00
Search period end: 03 February 2017 00:00
Orbit: 568 x 625 km, 64.6° (Epoch: 24 January)

Date Brightness Start Highest point End Pass type
(mag) Time Alt. Az. Time Alt. Az. Time Alt. Az.
24 Jan 9.9 05:36:27 21° NNE 05:37:39 24° NE 05:41:15 10° E visible
24 Jan 8.2 07:13:08 11° NW 07:17:25 55° WSW 07:21:41 10° SSE visible
25 Jan 9.4 05:46:37 29° N 05:47:57 35° NE 05:52:00 10° ESE visible
25 Jan 8.9 07:23:22 10° NW 07:27:19 31° WSW 07:31:11 10° S visible
26 Jan 8.5 05:56:53 41° N 05:58:07 57° NE 06:02:27 10° SE visible
26 Jan 9.6 07:34:05 10° WNW 07:37:07 18° WSW 07:40:07 10° SSW visible
27 Jan 11.1 04:30:33 13° ENE 04:30:33 13° ENE 04:31:14 10° E visible
27 Jan 7.9 06:07:15 55° NW 06:08:12 85° SW 06:12:35 10° SSE visible
28 Jan 10.8 04:41:02 16° E 04:41:02 16° E 04:42:14 10° E visible
28 Jan 8.2 06:17:44 46° W 06:18:11 48° WSW 06:22:23 10° SSE visible
29 Jan 10.5 04:51:37 18° ESE 04:51:37 18° ESE 04:52:55 10° ESE visible
29 Jan 9.0 06:28:20 27° WSW 06:28:20 27° WSW 06:31:47 10° S visible
30 Jan 10.5 05:02:19 16° SE 05:02:19 16° SE 05:03:17 10° SE visible
30 Jan 9.9 06:39:03 15° SW 06:39:03 15° SW 06:40:32 10° SSW visible
30 Jan 10.5 20:40:05 10° SSW 20:40:53 15° SSW 20:40:53 15° SSW visible
31 Jan 10.7 05:13:09 11° SSE 05:13:09 11° SSE 05:13:21 10° SSE visible
31 Jan 9.7 19:12:42 10° SSE 19:15:04 17° ESE 19:15:04 17° ESE visible
31 Jan 10.2 20:50:11 10° SW 20:51:49 22° SW 20:51:49 22° SW visible
01 Feb 8.9 19:21:34 10° S 19:25:29 30° ESE 19:25:56 29° ESE visible
01 Feb 10.2 21:00:36 10° WSW 21:02:39 24° W 21:02:39 24° W visible
02 Feb 8.2 19:31:01 10° SSW 19:35:23 51° ESE 19:36:40 38° ENE visible
02 Feb 10.5 21:11:18 10° W 21:13:23 20° WNW 21:13:23 20° WNW visible
